sat.trackr.live / text

‹ back to catalog

STARLINK-5688

NORAD 55479 · 2023-015AG

PAYLOAD ACTIVE UNKNOWN

§ Identity

Operator
Country
US
Launch date
2023-02-02
Launch site
AFETR
Launch vehicle
Mass (kg)
RCS (m²)

Purposes: comms

External: N2YO · Heavens-Above · Gunter

§ Orbital elements

Epoch: 2026-05-24T23:59:46.078368Z

Period
94.27 min
Inclination
43.0029°
Eccentricity
0.0001392
Mean motion
15.27575911 rev/d
Perigee alt
482.1 km
Apogee alt
484.0 km
Semi-major
6,861.2 km
B*
2.1130e-6
RAAN
250.6374°
Arg perigee
270.9231°
Mean anomaly
89.1461°
Rev number
18,247

§ Raw data

STARLINK-56881 55479U 23015AG  26144.99983887 -.00000204  00000+0  21130-5 0  99972 55479  43.0029 250.6374 0001392 270.9231  89.1461 15.27575911182470

JSON: /api/v1/satellites/55479 · /tle

For live sub-satellite position, see the globe view (requires WebGL).

§ Visibility from observer

Set your observer location to see the next 7 days of passes ≥ 10°. The values pass through the URL so the page stays shareable.

No JS? Fill the form by hand. The geolocation button needs JavaScript.